ニート彗星

312P/NEAT (2007)

English version
Home page
Updated on September 14, 2014

---------------------------------------------------------------------

・ プロフィール

・ 軌道要素

Epoch 2007 Dec. 6.0 TT = JDT 2454440.5
T 2007 Nov. 23.93482 TT                                 MPC
q   1.9492473            (2000.0)            P               Q
n   0.15411330     Peri.  207.17168     +0.97509396     +0.10585039
a   3.4454237      Node   144.99952     -0.08367070     +0.98939489
e   0.4342503      Incl.   19.86470     -0.20540444     +0.09946577
P   6.40
From 29 observations 2001 Aug. 18-2014 Sept. 7, mean residual 0".5.

・ 光度変化

        m1 = 14.5 + 5 logΔ + 10.0 log r

---------------------------------------------------------------------

軌道要素はM.P.E.C. 2014-R91に掲載されたものです。
光度グラフはComet for Windowsで作成したものです。

---------------------------------------------------------------------

Copyright(C) Seiichi Yoshida (comet@aerith.net). All rights reserved.